Location: Koslow
(50.3020°N, 18.5663°E)
Time: 21:24:37
(UTC+00:00)

STARLINK-1349 - Pass Details

Date: 07 June 2020
Orbit: 379 x 380 km, 53.0° (Epoch: 04 July)

Event Time Altitude Azimuth Distance (km) Brightness Sun altitude
Rises 01:27:31 0° 291° (WNW) 2,256 6.6 -8.5°
Reaches altitude 10° 01:29:34 10° 288° (WNW) 1,401 5.5 -8.3°
Maximum altitude 01:32:40 67° 206° (SSW) 416 2.8 -8.0°
Drops below altitude 10° 01:35:47 10° 123° (ESE) 1,396 5.8 -7.7°
Sets 01:37:49 0° 120° (ESE) 2,246 6.9 -7.5°
